Location: Unspecified
(41.1637°N, 24.2901°E)
Time: 15:41:22
(UTC+01:00)

ISS - Pass Details

Date: 04 March 2026
Orbit: 417 x 426 km, 51.6° (Epoch: 16 March)

Event Time Altitude Azimuth Distance (km) Brightness Sun altitude
Exits shadow 05:13:49 11° 281° (WNW) 1,451 -1.7 -8.1°
Maximum altitude 05:16:30 25° 226° (SW) 886 -2.5 -7.6°
Drops below altitude 10° 05:19:17 10° 169° (SSE) 1,485 -0.8 -7.1°
Sets 05:21:35 0° 155° (SSE) 2,343 0.4 -6.7°
